Powrót do katalogu

SCOUT A DEB

AktywnyPO
NORAD 2702·DEBRIS·🇺🇸 United States

Wystrzelony Aug 18, 1966 z Vandenberg Space Force Base

Loading…

Następne Przeloty (najbliższe 24 godziny)

TLE

ŚwieżeSource: Space-Track

Epoka: Sep 14, 2026, 10:45 UTC

1 02702U 66076D   26257.44804802  .00000114  00000-0  19251-3 0  9995
2 02702  88.5625 245.2455 0089086  26.5362 125.6289 13.36573634908257

Śledź SCOUT A DEB w czasie rzeczywistym z AllMySat

Download on the App Store